When you browse on this site, cookies collect data to enhance your experience and personalize the content and advertising you see.
Visit our Privacy Policy to learn more. By continuing to use the site, you agree to this use of cookies and data.
  • In Österreich
  • Länderverzeichnis
  • Für 7 Tage
  • Wassertemperatur
  • Satellitenkarten
  • Wetterkarte
  • News
  • Widgets
  • user-avatar
    Anmelden

    Stündliche Wetter Mauritius

    Heute, 21 Februar, Donnerstag

    Zeit Temperatur Niederschläge Wind Luftdruck Luftfeuchtigkeit
    00:00 +26°C° 0 mm 3 m/S 725 mmHg 85%
    01:00 +26°C° 0 mm 3 m/S 725 mmHg 86%
    02:00 +26°C° 0 mm 3 m/S 724 mmHg 86%
    03:00 +26°C° 0 mm 3 m/S 724 mmHg 86%
    04:00 +26°C° 0 mm 3 m/S 724 mmHg 87%
    05:00 +26°C° 0 mm 3 m/S 724 mmHg 86%
    06:00 +26°C° 0 mm 3 m/S 724 mmHg 86%
    07:00 +26°C° 0 mm 3 m/S 724 mmHg 86%
    08:00 +27°C° 0.1 mm 4 m/S 724 mmHg 82%
    09:00 +28°C° 0.1 mm 4 m/S 724 mmHg 78%
    10:00 +29°C° 0.1 mm 4 m/S 725 mmHg 74%
    11:00 +29°C° 0.2 mm 4 m/S 724 mmHg 72%
    12:00 +30°C° 0.2 mm 4 m/S 724 mmHg 71%
    13:00 +30°C° 0.2 mm 4 m/S 724 mmHg 70%
    14:00 +30°C° 1.2 mm 4 m/S 724 mmHg 71%
    15:00 +29°C° 1.2 mm 3 m/S 723 mmHg 72%
    16:00 +29°C° 1.2 mm 3 m/S 723 mmHg 74%
    17:00 +28°C° 1.3 mm 3 m/S 723 mmHg 77%
    18:00 +27°C° 1.3 mm 2 m/S 723 mmHg 80%
    19:00 +27°C° 1.3 mm 2 m/S 723 mmHg 83%
    20:00 +27°C° 0.5 mm 2 m/S 723 mmHg 83%
    21:00 +26°C° 0.5 mm 2 m/S 723 mmHg 83%
    22:00 +26°C° 0.5 mm 2 m/S 724 mmHg 84%
    23:00 +26°C° 0 mm 2 m/S 723 mmHg 84%

    Morgen, 22 Februar, Freitag

    Zeit Temperatur Niederschläge Wind Luftdruck Luftfeuchtigkeit
    00:00 +26°C° 0 mm 2 m/S 723 mmHg 85%
    01:00 +26°C° 0 mm 2 m/S 723 mmHg 85%
    02:00 +26°C° 0 mm 2 m/S 723 mmHg 85%
    03:00 +26°C° 0 mm 2 m/S 722 mmHg 85%
    04:00 +25°C° 0 mm 1 m/S 722 mmHg 85%
    05:00 +26°C° 0 mm 1 m/S 722 mmHg 85%
    06:00 +26°C° 0 mm 1 m/S 722 mmHg 84%
    07:00 +26°C° 0 mm 1 m/S 722 mmHg 83%
    08:00 +27°C° 0 mm 2 m/S 722 mmHg 78%
    09:00 +28°C° 0 mm 2 m/S 723 mmHg 72%
    10:00 +29°C° 0 mm 3 m/S 723 mmHg 67%
    11:00 +30°C° 0 mm 3 m/S 723 mmHg 65%
    12:00 +30°C° 0 mm 3 m/S 722 mmHg 63%
    13:00 +31°C° 0 mm 3 m/S 722 mmHg 61%
    14:00 +30°C° 0.8 mm 3 m/S 722 mmHg 63%
    15:00 +30°C° 0.8 mm 3 m/S 721 mmHg 64%
    16:00 +29°C° 0.8 mm 2 m/S 721 mmHg 66%
    17:00 +28°C° 0.6 mm 2 m/S 721 mmHg 69%
    18:00 +28°C° 0.6 mm 2 m/S 721 mmHg 72%
    19:00 +27°C° 0.6 mm 2 m/S 721 mmHg 75%
    20:00 +27°C° 0 mm 2 m/S 721 mmHg 76%
    21:00 +27°C° 0 mm 1 m/S 722 mmHg 77%
    22:00 +26°C° 0 mm 1 m/S 722 mmHg 78%
    23:00 +26°C° 0 mm 1 m/S 722 mmHg 78%

    übermorgen, 23 Februar, Samstag

    Zeit Temperatur Niederschläge Wind Luftdruck Luftfeuchtigkeit
    00:00 +26°C° 0 mm 1 m/S 721 mmHg 79%
    01:00 +26°C° 0 mm 1 m/S 721 mmHg 80%
    02:00 +26°C° 0 mm 1 m/S 721 mmHg 80%
    03:00 +25°C° 0 mm 1 m/S 720 mmHg 81%
    04:00 +25°C° 0 mm 1 m/S 720 mmHg 82%
    05:00 +25°C° 0 mm 1 m/S 720 mmHg 81%
    06:00 +26°C° 0 mm 1 m/S 720 mmHg 81%
    07:00 +26°C° 0 mm 2 m/S 720 mmHg 81%
    08:00 +27°C° 0 mm 2 m/S 721 mmHg 75%
    09:00 +28°C° 0 mm 2 m/S 721 mmHg 70%
    10:00 +29°C° 0 mm 3 m/S 721 mmHg 65%
    11:00 +30°C° 0 mm 3 m/S 721 mmHg 62%
    12:00 +30°C° 0 mm 3 m/S 721 mmHg 60%
    13:00 +31°C° 0 mm 3 m/S 721 mmHg 57%
    14:00 +30°C° 0.4 mm 3 m/S 721 mmHg 60%
    15:00 +30°C° 0.4 mm 3 m/S 720 mmHg 63%
    16:00 +29°C° 0.4 mm 3 m/S 720 mmHg 66%
    17:00 +28°C° 0.4 mm 2 m/S 720 mmHg 69%
    18:00 +28°C° 0.4 mm 2 m/S 720 mmHg 73%
    19:00 +27°C° 0.4 mm 2 m/S 721 mmHg 76%
    20:00 +27°C° 0.3 mm 2 m/S 721 mmHg 77%
    21:00 +27°C° 0.3 mm 2 m/S 721 mmHg 78%
    22:00 +26°C° 0.3 mm 2 m/S 722 mmHg 79%
    23:00 +26°C° 0.2 mm 2 m/S 721 mmHg 80%

    24 Februar, Sonntag

    Zeit Temperatur Niederschläge Wind Luftdruck Luftfeuchtigkeit
    00:00 +26°C° 0.2 mm 2 m/S 721 mmHg 80%
    01:00 +26°C° 0.2 mm 2 m/S 721 mmHg 81%
    02:00 +26°C° 0 mm 2 m/S 720 mmHg 81%
    03:00 +26°C° 0 mm 2 m/S 720 mmHg 81%
    04:00 +26°C° 0 mm 2 m/S 720 mmHg 82%
    05:00 +26°C° 0 mm 2 m/S 720 mmHg 81%
    06:00 +26°C° 0 mm 2 m/S 720 mmHg 81%
    07:00 +26°C° 0 mm 2 m/S 721 mmHg 81%
    08:00 +27°C° 0 mm 3 m/S 721 mmHg 77%
    09:00 +28°C° 0 mm 3 m/S 721 mmHg 72%
    10:00 +29°C° 0 mm 3 m/S 722 mmHg 68%
    11:00 +29°C° 0.1 mm 3 m/S 721 mmHg 67%
    12:00 +30°C° 0.1 mm 3 m/S 721 mmHg 65%
    13:00 +30°C° 0.1 mm 4 m/S 721 mmHg 63%
    14:00 +30°C° 0.2 mm 4 m/S 720 mmHg 64%
    15:00 +30°C° 0.2 mm 3 m/S 720 mmHg 66%
    16:00 +29°C° 0.2 mm 3 m/S 720 mmHg 67%
    17:00 +28°C° 0.2 mm 3 m/S 720 mmHg 70%
    18:00 +28°C° 0.2 mm 3 m/S 721 mmHg 74%
    19:00 +27°C° 0.2 mm 3 m/S 721 mmHg 77%
    20:00 +27°C° 0 mm 3 m/S 721 mmHg 78%
    21:00 +27°C° 0 mm 3 m/S 722 mmHg 78%
    22:00 +26°C° 0 mm 3 m/S 722 mmHg 79%
    23:00 +26°C° 0 mm 3 m/S 722 mmHg 80%

    25 Februar, Montag

    Zeit Temperatur Niederschläge Wind Luftdruck Luftfeuchtigkeit
    00:00 +26°C° 0 mm 3 m/S 722 mmHg 80%
    01:00 +26°C° 0 mm 3 m/S 721 mmHg 81%
    02:00 +26°C° 0 mm 3 m/S 721 mmHg 82%
    03:00 +26°C° 0 mm 3 m/S 721 mmHg 82%
    04:00 +26°C° 0 mm 3 m/S 720 mmHg 83%
    05:00 +26°C° 0 mm 3 m/S 721 mmHg 83%
    06:00 +26°C° 0 mm 3 m/S 721 mmHg 82%
    07:00 +26°C° 0 mm 3 m/S 722 mmHg 82%
    08:00 +27°C° 0 mm 3 m/S 722 mmHg 77%
    09:00 +28°C° 0 mm 3 m/S 722 mmHg 73%
    10:00 +29°C° 0 mm 4 m/S 722 mmHg 68%
    11:00 +30°C° 0 mm 4 m/S 722 mmHg 67%
    12:00 +30°C° 0 mm 4 m/S 722 mmHg 65%
    13:00 +32°C° 0 mm 4 m/S 722 mmHg 64%
    14:00 +30°C° 0.6 mm 4 m/S 721 mmHg 65%
    15:00 +30°C° 0.6 mm 4 m/S 721 mmHg 67%
    16:00 +29°C° 0.6 mm 3 m/S 721 mmHg 69%
    17:00 +29°C° 0.3 mm 3 m/S 721 mmHg 72%
    18:00 +28°C° 0.3 mm 3 m/S 722 mmHg 76%
    19:00 +27°C° 0.3 mm 3 m/S 722 mmHg 79%
    20:00 +27°C° 0.1 mm 2 m/S 722 mmHg 80%
    21:00 +27°C° 0.1 mm 2 m/S 723 mmHg 81%
    22:00 +27°C° 0.1 mm 2 m/S 723 mmHg 82%
    23:00 +26°C° 0.1 mm 2 m/S 723 mmHg 83%

    26 Februar, Dienstag

    Zeit Temperatur Niederschläge Wind Luftdruck Luftfeuchtigkeit
    00:00 +26°C° 0.1 mm 2 m/S 722 mmHg 83%
    01:00 +26°C° 0.1 mm 2 m/S 722 mmHg 84%
    02:00 +26°C° 0.3 mm 2 m/S 722 mmHg 84%
    03:00 +26°C° 0.3 mm 2 m/S 722 mmHg 85%
    04:00 +26°C° 0.3 mm 2 m/S 722 mmHg 85%
    05:00 +26°C° 0.2 mm 2 m/S 722 mmHg 85%
    06:00 +26°C° 0.2 mm 2 m/S 722 mmHg 84%
    07:00 +26°C° 0.2 mm 2 m/S 723 mmHg 84%
    08:00 +27°C° 0 mm 2 m/S 723 mmHg 80%
    09:00 +28°C° 0 mm 3 m/S 723 mmHg 76%
    10:00 +29°C° 0 mm 3 m/S 723 mmHg 72%
    11:00 +30°C° 0 mm 3 m/S 723 mmHg 69%
    12:00 +30°C° 0 mm 3 m/S 723 mmHg 66%
    13:00 +31°C° 0 mm 3 m/S 723 mmHg 63%
    14:00 +32°C° 0.5 mm 4 m/S 723 mmHg 65%
    15:00 +30°C° 0.5 mm 4 m/S 722 mmHg 66%
    16:00 +30°C° 0.5 mm 4 m/S 722 mmHg 67%
    17:00 +29°C° 0 mm 4 m/S 722 mmHg 72%
    18:00 +28°C° 0 mm 3 m/S 723 mmHg 76%
    19:00 +27°C° 0 mm 3 m/S 723 mmHg 80%
    20:00 +27°C° 0.1 mm 3 m/S 723 mmHg 81%
    21:00 +27°C° 0.1 mm 3 m/S 724 mmHg 82%
    22:00 +27°C° 0.1 mm 3 m/S 724 mmHg 83%
    23:00 +27°C° 0.5 mm 3 m/S 724 mmHg 84%
    Mehr zeigen